﻿_id,City,State or Province,Country,Latitude(deg N+),Longitude(deg E+),Elevation(m),Time Zone(E+),Time Step(min),Begin Time(yyyy-mm-ddThh:mm),End Time(yyyy-mm-ddThh:mm),Data Source
1,Changshu,Jiangsu,China,31.53,120.64,8,8,60,2018-02-06T01:00,2019-05-16T00:00:00,Canadian Solar Inc
2,Year,Month,Day,Hour,Minute,GHIsi(W/m2),Flag,GRIsi(W/m2),Flag,,""
3,2018,2,6,1,0,0,1,0,1,,""
4,2018,2,6,2,0,0,1,0,1,,""
5,2018,2,6,3,0,0,1,0,1,,""
6,2018,2,6,4,0,0,1,0,1,,""
7,2018,2,6,5,0,0,1,0,1,,""
8,2018,2,6,6,0,0,1,0,1,,""
9,2018,2,6,7,0,2.2,1,0.3,1,,""
10,2018,2,6,8,0,61.1,1,15.3,1,,""
11,2018,2,6,9,0,208.9,1,58.2,1,,""
12,2018,2,6,10,0,387.3,1,112.4,1,,""
13,2018,2,6,11,0,521.3,1,150.6,1,,""
14,2018,2,6,12,0,608.4,1,174.5,1,,""
15,2018,2,6,13,0,627.8,1,179.2,1,,""
16,2018,2,6,14,0,576.8,1,162.7,1,,""
17,2018,2,6,15,0,459.9,1,125.4,1,,""
18,2018,2,6,16,0,287.9,1,65.9,1,,""
19,2018,2,6,17,0,112,1,20.3,1,,""
20,2018,2,6,18,0,9.2,1,1.7,1,,""
21,2018,2,6,19,0,0,1,0,1,,""
22,2018,2,6,20,0,0,1,0,1,,""
23,2018,2,6,21,0,0,1,0,1,,""
24,2018,2,6,22,0,0,1,0,1,,""
25,2018,2,6,23,0,0,1,0,1,,""
26,2018,2,7,0,0,0,1,0,1,,""
27,2018,2,7,1,0,0,1,0,1,,""
28,2018,2,7,2,0,0,1,0,1,,""
29,2018,2,7,3,0,0,1,0,1,,""
30,2018,2,7,4,0,0,1,0,1,,""
31,2018,2,7,5,0,0,1,0,1,,""
32,2018,2,7,6,0,0,1,0,1,,""
33,2018,2,7,7,0,2.8,1,0.4,1,,""
34,2018,2,7,8,0,68.8,1,17.3,1,,""
35,2018,2,7,9,0,201.5,1,55.7,1,,""
36,2018,2,7,10,0,296.3,1,83.5,1,,""
37,2018,2,7,11,0,473.7,1,134.8,1,,""
38,2018,2,7,12,0,562.4,1,159.5,1,,""
39,2018,2,7,13,0,584.3,1,165,1,,""
40,2018,2,7,14,0,-9999,99,-9999,99,,""
41,2018,2,7,15,0,-9999,99,-9999,99,,""
42,2018,2,7,16,0,230.6,1,57.2,1,,""
43,2018,2,7,17,0,104.7,1,24.3,1,,""
44,2018,2,7,18,0,11.1,1,2.4,1,,""
45,2018,2,7,19,0,0,1,0,1,,""
46,2018,2,7,20,0,0,1,0,1,,""
47,2018,2,7,21,0,0,1,0,1,,""
48,2018,2,7,22,0,0,1,0,1,,""
49,2018,2,7,23,0,0,1,0,1,,""
50,2018,2,8,0,0,0,1,0,1,,""
51,2018,2,8,1,0,0,1,0,1,,""
52,2018,2,8,2,0,0,1,0,1,,""
53,2018,2,8,3,0,0,1,0,1,,""
54,2018,2,8,4,0,0,1,0,1,,""
55,2018,2,8,5,0,0,1,0,1,,""
56,2018,2,8,6,0,0,1,0,1,,""
57,2018,2,8,7,0,2.7,1,0.4,1,,""
58,2018,2,8,8,0,63.8,1,15.9,1,,""
59,2018,2,8,9,0,217,1,60.7,1,,""
60,2018,2,8,10,0,388.5,1,112.3,1,,""
61,2018,2,8,11,0,542,1,156.6,1,,""
62,2018,2,8,12,0,622.1,1,178.1,1,,""
63,2018,2,8,13,0,631.6,1,179.8,1,,""
64,2018,2,8,14,0,574.9,1,162.1,1,,""
65,2018,2,8,15,0,458.7,1,125.7,1,,""
66,2018,2,8,16,0,289.1,1,68.7,1,,""
67,2018,2,8,17,0,105.2,1,20.4,1,,""
68,2018,2,8,18,0,8,1,1.5,1,,""
69,2018,2,8,19,0,0,1,0,1,,""
70,2018,2,8,20,0,0,1,0,1,,""
71,2018,2,8,21,0,0,1,0,1,,""
72,2018,2,8,22,0,0,1,0,1,,""
73,2018,2,8,23,0,0,1,0,1,,""
74,2018,2,9,0,0,0,1,0,1,,""
75,2018,2,9,1,0,-9999,99,-9999,99,,""
76,2018,2,9,2,0,-9999,99,-9999,99,,""
77,2018,2,9,3,0,-9999,99,-9999,99,,""
78,2018,2,9,4,0,-9999,99,-9999,99,,""
79,2018,2,9,5,0,-9999,99,-9999,99,,""
80,2018,2,9,6,0,-9999,99,-9999,99,,""
81,2018,2,9,7,0,-9999,99,-9999,99,,""
82,2018,2,9,8,0,-9999,99,-9999,99,,""
83,2018,2,9,9,0,-9999,99,-9999,99,,""
84,2018,2,9,10,0,-9999,99,-9999,99,,""
85,2018,2,9,11,0,191.3,1,53.1,1,,""
86,2018,2,9,12,0,-9999,99,-9999,99,,""
87,2018,2,9,13,0,210.7,1,57.7,1,,""
88,2018,2,9,14,0,202.9,1,56.5,1,,""
89,2018,2,9,15,0,283.8,1,79,1,,""
90,2018,2,9,16,0,141.9,1,39.2,1,,""
91,2018,2,9,17,0,37.8,1,9.8,1,,""
92,2018,2,9,18,0,4.9,1,0.9,1,,""
93,2018,2,9,19,0,0,1,0,1,,""
94,2018,2,9,20,0,0,1,0,1,,""
95,2018,2,9,21,0,0,1,0,1,,""
96,2018,2,9,22,0,0,1,0,1,,""
97,2018,2,9,23,0,0,1,0,1,,""
98,2018,2,10,0,0,0,1,0,1,,""
99,2018,2,10,1,0,0,1,0,1,,""
100,2018,2,10,2,0,0,1,0,1,,""
101,2018,2,10,3,0,0,1,0,1,,""
102,2018,2,10,4,0,0,1,0,1,,""
103,2018,2,10,5,0,0,1,0,1,,""
104,2018,2,10,6,0,0,1,0,1,,""
105,2018,2,10,7,0,1.1,1,0.1,1,,""
106,2018,2,10,8,0,20.6,1,4.7,1,,""
107,2018,2,10,9,0,38.3,1,9.6,1,,""
108,2018,2,10,10,0,86.1,1,23.1,1,,""
109,2018,2,10,11,0,139.5,1,38.3,1,,""
110,2018,2,10,12,0,213.7,1,58.8,1,,""
111,2018,2,10,13,0,298,1,82.6,1,,""
112,2018,2,10,14,0,243.5,1,68.2,1,,""
113,2018,2,10,15,0,239.2,1,66.7,1,,""
114,2018,2,10,16,0,155.4,1,42.9,1,,""
115,2018,2,10,17,0,76.1,1,20.2,1,,""
116,2018,2,10,18,0,10.8,1,2.3,1,,""
117,2018,2,10,19,0,0,1,0,1,,""
118,2018,2,10,20,0,0,1,0,1,,""
119,2018,2,10,21,0,0,1,0,1,,""
120,2018,2,10,22,0,0,1,0,1,,""
121,2018,2,10,23,0,0,1,0,1,,""
122,2018,2,11,0,0,0,1,0,1,,""
123,2018,2,11,1,0,0,1,0,1,,""
124,2018,2,11,2,0,0,1,0,1,,""
125,2018,2,11,3,0,0,1,0,1,,""
126,2018,2,11,4,0,0,1,0,1,,""
127,2018,2,11,5,0,0,1,0,1,,""
128,2018,2,11,6,0,0,1,0,1,,""
129,2018,2,11,7,0,3.7,1,0.6,1,,""
130,2018,2,11,8,0,72.8,1,18.8,1,,""
131,2018,2,11,9,0,202.9,1,57.7,1,,""
132,2018,2,11,10,0,361.8,1,105.7,1,,""
133,2018,2,11,11,0,497.1,1,145.2,1,,""
134,2018,2,11,12,0,580,1,167.9,1,,""
135,2018,2,11,13,0,577.6,1,166.4,1,,""
136,2018,2,11,14,0,515.6,1,147.4,1,,""
137,2018,2,11,15,0,396.8,1,111,1,,""
138,2018,2,11,16,0,234.2,1,61.7,1,,""
139,2018,2,11,17,0,93.2,1,23.8,1,,""
140,2018,2,11,18,0,12.3,1,2.8,1,,""
141,2018,2,11,19,0,0,1,0,1,,""
142,2018,2,11,20,0,0,1,0,1,,""
143,2018,2,11,21,0,0,1,0,1,,""
144,2018,2,11,22,0,0,1,0,1,,""
145,2018,2,11,23,0,0,1,0,1,,""
146,2018,2,12,0,0,0,1,0,1,,""
147,2018,2,12,1,0,-9999,99,-9999,99,,""
148,2018,2,12,2,0,-9999,99,-9999,99,,""
149,2018,2,12,3,0,-9999,99,-9999,99,,""
150,2018,2,12,4,0,-9999,99,-9999,99,,""
151,2018,2,12,5,0,-9999,99,-9999,99,,""
152,2018,2,12,6,0,-9999,99,-9999,99,,""
153,2018,2,12,7,0,-9999,99,-9999,99,,""
154,2018,2,12,8,0,-9999,99,-9999,99,,""
155,2018,2,12,9,0,-9999,99,-9999,99,,""
156,2018,2,12,10,0,-9999,99,-9999,99,,""
157,2018,2,12,11,0,-9999,99,-9999,99,,""
158,2018,2,12,12,0,639.5,1,188.8,1,,""
159,2018,2,12,13,0,634.5,1,186.4,1,,""
160,2018,2,12,14,0,569.5,1,166.6,1,,""
161,2018,2,12,15,0,457.4,1,132.1,1,,""
162,2018,2,12,16,0,308.8,1,78.7,1,,""
163,2018,2,12,17,0,134.5,1,25.1,1,,""
164,2018,2,12,18,0,15.3,1,3.2,1,,""
165,2018,2,12,19,0,0,1,0,1,,""
166,2018,2,12,20,0,0,1,0,1,,""
167,2018,2,12,21,0,0,1,0,1,,""
168,2018,2,12,22,0,0,1,0,1,,""
169,2018,2,12,23,0,0,1,0,1,,""
170,2018,2,13,0,0,0,1,0,1,,""
171,2018,2,13,1,0,0,1,0,1,,""
172,2018,2,13,2,0,0,1,0,1,,""
173,2018,2,13,3,0,0,1,0,1,,""
174,2018,2,13,4,0,0,1,0,1,,""
175,2018,2,13,5,0,0,1,0,1,,""
176,2018,2,13,6,0,0,1,0,1,,""
177,2018,2,13,7,0,4.4,1,0.8,1,,""
178,2018,2,13,8,0,82.5,1,25.4,1,,""
179,2018,2,13,9,0,248.3,1,78.8,1,,""
180,2018,2,13,10,0,429.4,1,134.9,1,,""
181,2018,2,13,11,0,572.6,1,176.7,1,,""
182,2018,2,13,12,0,650.2,1,197.5,1,,""
183,2018,2,13,13,0,669.3,1,201.9,1,,""
184,2018,2,13,14,0,610.4,1,183.1,1,,""
185,2018,2,13,15,0,472.2,1,139,1,,""
186,2018,2,13,16,0,323.9,1,84.3,1,,""
187,2018,2,13,17,0,145.8,1,29.6,1,,""
188,2018,2,13,18,0,18.1,1,4.2,1,,""
189,2018,2,13,19,0,0,1,0,1,,""
190,2018,2,13,20,0,0,1,0,1,,""
191,2018,2,13,21,0,0,1,0,1,,""
192,2018,2,13,22,0,0,1,0,1,,""
193,2018,2,13,23,0,0,1,0,1,,""
194,2018,2,14,0,0,0,1,0,1,,""
195,2018,2,14,1,0,0,1,0,1,,""
196,2018,2,14,2,0,0,1,0,1,,""
197,2018,2,14,3,0,0,1,0,1,,""
198,2018,2,14,4,0,0,1,0,1,,""
199,2018,2,14,5,0,0,1,0,1,,""
200,2018,2,14,6,0,0,1,0,1,,""
201,2018,2,14,7,0,4.3,1,0.8,1,,""
202,2018,2,14,8,0,75.2,1,22.2,1,,""
203,2018,2,14,9,0,223.1,1,69.2,1,,""
204,2018,2,14,10,0,387,1,119.8,1,,""
205,2018,2,14,11,0,519,1,158.6,1,,""
206,2018,2,14,12,0,543.3,1,163.1,1,,""
207,2018,2,14,13,0,327.4,1,95.6,1,,""
208,2018,2,14,14,0,348.5,1,102.8,1,,""
209,2018,2,14,15,0,177.8,1,52.4,1,,""
210,2018,2,14,16,0,135,1,39.5,1,,""
211,2018,2,14,17,0,36.6,1,10,1,,""
212,2018,2,14,18,0,1.7,1,0.1,1,,""
213,2018,2,14,19,0,0,1,0,1,,""
214,2018,2,14,20,0,0,1,0,1,,""
215,2018,2,14,21,0,0,1,0,1,,""
216,2018,2,14,22,0,0,1,0,1,,""
217,2018,2,14,23,0,0,1,0,1,,""
218,2018,2,15,0,0,0,1,0,1,,""
219,2018,2,15,1,0,0,1,0,1,,""
220,2018,2,15,2,0,0,1,0,1,,""
221,2018,2,15,3,0,0,1,0,1,,""
222,2018,2,15,4,0,0,1,0,1,,""
223,2018,2,15,5,0,0,1,0,1,,""
224,2018,2,15,6,0,0,1,0,1,,""
225,2018,2,15,7,0,0.8,1,0.1,1,,""
226,2018,2,15,8,0,16.7,1,3.9,1,,""
227,2018,2,15,9,0,51.2,1,13.9,1,,""
228,2018,2,15,10,0,107.4,1,30.2,1,,""
229,2018,2,15,11,0,100.7,1,28.4,1,,""
230,2018,2,15,12,0,112.5,1,31.4,1,,""
231,2018,2,15,13,0,132.7,1,37.3,1,,""
232,2018,2,15,14,0,95.2,1,26.9,1,,""
233,2018,2,15,15,0,70.8,1,20,1,,""
234,2018,2,15,16,0,37.3,1,10.2,1,,""
235,2018,2,15,17,0,13.5,1,3.1,1,,""
236,2018,2,15,18,0,1,1,0.1,1,,""
237,2018,2,15,19,0,0,1,0,1,,""
238,2018,2,15,20,0,0,1,0,1,,""
239,2018,2,15,21,0,0,1,0,1,,""
240,2018,2,15,22,0,0,1,0,1,,""
241,2018,2,15,23,0,0,1,0,1,,""
242,2018,2,16,0,0,0,1,0,1,,""
243,2018,2,16,1,0,0,1,0,1,,""
244,2018,2,16,2,0,0,1,0,1,,""
245,2018,2,16,3,0,0,1,0,1,,""
246,2018,2,16,4,0,0,1,0,1,,""
247,2018,2,16,5,0,0,1,0,1,,""
248,2018,2,16,6,0,0,1,0,1,,""
249,2018,2,16,7,0,0.1,1,0,1,,""
250,2018,2,16,8,0,5.9,1,0.1,1,,""
251,2018,2,16,9,0,12.4,1,0.6,1,,""
252,2018,2,16,10,0,48.7,1,4.7,1,,""
253,2018,2,16,11,0,68,1,6.9,1,,""
254,2018,2,16,12,0,125.3,1,13.6,1,,""
255,2018,2,16,13,0,83.1,1,8.7,1,,""
256,2018,2,16,14,0,82,1,8.9,1,,""
257,2018,2,16,15,0,145.9,1,17.2,1,,""
258,2018,2,16,16,0,67.5,1,7.6,1,,""
259,2018,2,16,17,0,29,1,2.7,1,,""
260,2018,2,16,18,0,6.4,1,0.3,1,,""
261,2018,2,16,19,0,0,1,0,1,,""
262,2018,2,16,20,0,0,1,0,1,,""
263,2018,2,16,21,0,0,1,0,1,,""
264,2018,2,16,22,0,0,1,0,1,,""
265,2018,2,16,23,0,0,1,0,1,,""
266,2018,2,17,0,0,0,1,0,1,,""
267,2018,2,17,1,0,0,1,0,1,,""
268,2018,2,17,2,0,0,1,0,1,,""
269,2018,2,17,3,0,0,1,0,1,,""
270,2018,2,17,4,0,0,1,0,1,,""
271,2018,2,17,5,0,0,1,0,1,,""
272,2018,2,17,6,0,0,1,0,1,,""
273,2018,2,17,7,0,5.1,1,0.3,1,,""
274,2018,2,17,8,0,78.5,1,10,1,,""
275,2018,2,17,9,0,234.4,1,31.7,1,,""
276,2018,2,17,10,0,416.8,1,63.5,1,,""
277,2018,2,17,11,0,560.2,1,100.8,1,,""
278,2018,2,17,12,0,640.5,1,142.3,1,,""
279,2018,2,17,13,0,651.5,1,164.4,1,,""
280,2018,2,17,14,0,604,1,160.6,1,,""
281,2018,2,17,15,0,469,1,124.4,1,,""
282,2018,2,17,16,0,301,1,74.2,1,,""
283,2018,2,17,17,0,130.4,1,28.9,1,,""
284,2018,2,17,18,0,18.6,1,4,1,,""
285,2018,2,17,19,0,0,1,0,1,,""
286,2018,2,17,20,0,0,1,0,1,,""
287,2018,2,17,21,0,0,1,0,1,,""
288,2018,2,17,22,0,0,1,0,1,,""
289,2018,2,17,23,0,0,1,0,1,,""
290,2018,2,18,0,0,0,1,0,1,,""
291,2018,2,18,1,0,0,1,0,1,,""
292,2018,2,18,2,0,0,1,0,1,,""
293,2018,2,18,3,0,0,1,0,1,,""
294,2018,2,18,4,0,0,1,0,1,,""
295,2018,2,18,5,0,0,1,0,1,,""
296,2018,2,18,6,0,0,1,0,1,,""
297,2018,2,18,7,0,0.7,1,0,1,,""
298,2018,2,18,8,0,18.3,1,3.9,1,,""
299,2018,2,18,9,0,26.3,1,6.1,1,,""
300,2018,2,18,10,0,27.8,1,4.9,1,,""
301,2018,2,18,11,0,92.3,1,19.5,1,,""
302,2018,2,18,12,0,104.2,1,23.3,1,,""
303,2018,2,18,13,0,157,1,36.8,1,,""
304,2018,2,18,14,0,49.8,1,9.6,1,,""
305,2018,2,18,15,0,52.8,1,6.4,1,,""
306,2018,2,18,16,0,17.5,1,1.4,1,,""
307,2018,2,18,17,0,6,1,0.2,1,,""
308,2018,2,18,18,0,0.3,1,0,1,,""
309,2018,2,18,19,0,0,1,0,1,,""
310,2018,2,18,20,0,0,1,0,1,,""
311,2018,2,18,21,0,0,1,0,1,,""
312,2018,2,18,22,0,0,1,0,1,,""
313,2018,2,18,23,0,0,1,0,1,,""
314,2018,2,19,0,0,0,1,0,1,,""
315,2018,2,19,1,0,0,1,0,1,,""
316,2018,2,19,2,0,0,1,0,1,,""
317,2018,2,19,3,0,0,1,0,1,,""
318,2018,2,19,4,0,0,1,0,1,,""
319,2018,2,19,5,0,0,1,0,1,,""
320,2018,2,19,6,0,0,1,0,1,,""
321,2018,2,19,7,0,0.2,1,0,1,,""
322,2018,2,19,8,0,6.7,1,0,1,,""
323,2018,2,19,9,0,21.6,1,1.6,1,,""
324,2018,2,19,10,0,32,1,2.7,1,,""
325,2018,2,19,11,0,25.9,1,2.1,1,,""
326,2018,2,19,12,0,44.8,1,4,1,,""
327,2018,2,19,13,0,56.2,1,5.4,1,,""
328,2018,2,19,14,0,57.6,1,5.6,1,,""
329,2018,2,19,15,0,34.4,1,3.1,1,,""
330,2018,2,19,16,0,37.4,1,3.4,1,,""
331,2018,2,19,17,0,15.1,1,0.8,1,,""
332,2018,2,19,18,0,3.7,1,0,1,,""
333,2018,2,19,19,0,0,1,0,1,,""
334,2018,2,19,20,0,0,1,0,1,,""
335,2018,2,19,21,0,0,1,0,1,,""
336,2018,2,19,22,0,0,1,0,1,,""
337,2018,2,19,23,0,0,1,0,1,,""
338,2018,2,20,0,0,0,1,0,1,,""
339,2018,2,20,1,0,0,1,0,1,,""
340,2018,2,20,2,0,0,1,0,1,,""
341,2018,2,20,3,0,0,1,0,1,,""
342,2018,2,20,4,0,0,1,0,1,,""
343,2018,2,20,5,0,0,1,0,1,,""
344,2018,2,20,6,0,0,1,0,1,,""
345,2018,2,20,7,0,1.1,1,0,1,,""
346,2018,2,20,8,0,19.9,1,1.6,1,,""
347,2018,2,20,9,0,83.6,1,9.7,1,,""
348,2018,2,20,10,0,121.2,1,15.1,1,,""
349,2018,2,20,11,0,154.9,1,20.4,1,,""
350,2018,2,20,12,0,86.5,1,11.4,1,,""
351,2018,2,20,13,0,57.2,1,6.7,1,,""
352,2018,2,20,14,0,82.4,1,8.6,1,,""
353,2018,2,20,15,0,72.9,1,7.5,1,,""
354,2018,2,20,16,0,25.3,1,2,1,,""
355,2018,2,20,17,0,12,1,0.5,1,,""
356,2018,2,20,18,0,1.9,1,0,1,,""
357,2018,2,20,19,0,0,1,0,1,,""
358,2018,2,20,20,0,0,1,0,1,,""
359,2018,2,20,21,0,0,1,0,1,,""
360,2018,2,20,22,0,0,1,0,1,,""
361,2018,2,20,23,0,0,1,0,1,,""
362,2018,2,21,0,0,0,1,0,1,,""
363,2018,2,21,1,0,0,1,0,1,,""
364,2018,2,21,2,0,0,1,0,1,,""
365,2018,2,21,3,0,0,1,0,1,,""
366,2018,2,21,4,0,0,1,0,1,,""
367,2018,2,21,5,0,0,1,0,1,,""
368,2018,2,21,6,0,0,1,0,1,,""
369,2018,2,21,7,0,2.1,1,0,1,,""
370,2018,2,21,8,0,75.2,1,7.7,1,,""
371,2018,2,21,9,0,147.4,1,16.5,1,,""
372,2018,2,21,10,0,179,1,20.5,1,,""
373,2018,2,21,11,0,127.7,1,14.6,1,,""
374,2018,2,21,12,0,211.5,1,25.7,1,,""
375,2018,2,21,13,0,183.6,1,23.2,1,,""
376,2018,2,21,14,0,154.2,1,20.6,1,,""
377,2018,2,21,15,0,41.4,1,5.1,1,,""
378,2018,2,21,16,0,25.2,1,2.8,1,,""
379,2018,2,21,17,0,11.4,1,0.7,1,,""
380,2018,2,21,18,0,2.7,1,0,1,,""
381,2018,2,21,19,0,0,1,0,1,,""
382,2018,2,21,20,0,0,1,0,1,,""
383,2018,2,21,21,0,0,1,0,1,,""
384,2018,2,21,22,0,0,1,0,1,,""
385,2018,2,21,23,0,0,1,0,1,,""
386,2018,2,22,0,0,0,1,0,1,,""
387,2018,2,22,1,0,0,1,0,1,,""
388,2018,2,22,2,0,0,1,0,1,,""
389,2018,2,22,3,0,0,1,0,1,,""
390,2018,2,22,4,0,0,1,0,1,,""
391,2018,2,22,5,0,0,1,0,1,,""
392,2018,2,22,6,0,0,1,0,1,,""
393,2018,2,22,7,0,3.6,1,0.2,1,,""
394,2018,2,22,8,0,29.3,1,3.8,1,,""
395,2018,2,22,9,0,118.5,1,19,1,,""
396,2018,2,22,10,0,199.1,1,33.8,1,,""
397,2018,2,22,11,0,247.3,1,44.7,1,,""
398,2018,2,22,12,0,380.6,1,75,1,,""
399,2018,2,22,13,0,526.5,1,115.4,1,,""
400,2018,2,22,14,0,537.4,1,130.2,1,,""
401,2018,2,22,15,0,-9999,99,-9999,99,,""
402,2018,2,22,16,0,334.1,1,81.6,1,,""
403,2018,2,22,17,0,165.5,1,38.4,1,,""
404,2018,2,22,18,0,28.6,1,6.5,1,,""
405,2018,2,22,19,0,0,1,0,1,,""
406,2018,2,22,20,0,0,1,0,1,,""
407,2018,2,22,21,0,0,1,0,1,,""
408,2018,2,22,22,0,0,1,0,1,,""
409,2018,2,22,23,0,0,1,0,1,,""
410,2018,2,23,0,0,0,1,0,1,,""
411,2018,2,23,1,0,0,1,0,1,,""
412,2018,2,23,2,0,0,1,0,1,,""
413,2018,2,23,3,0,0,1,0,1,,""
414,2018,2,23,4,0,0,1,0,1,,""
415,2018,2,23,5,0,0,1,0,1,,""
416,2018,2,23,6,0,0,1,0,1,,""
417,2018,2,23,7,0,9.6,1,1.8,1,,""
418,2018,2,23,8,0,109.5,1,27.7,1,,""
419,2018,2,23,9,0,293.2,1,76.6,1,,""
420,2018,2,23,10,0,489.3,1,132.7,1,,""
421,2018,2,23,11,0,639,1,176.3,1,,""
422,2018,2,23,12,0,726.9,1,201.8,1,,""
423,2018,2,23,13,0,736.6,1,203.8,1,,""
424,2018,2,23,14,0,676.9,1,185.9,1,,""
425,2018,2,23,15,0,557.3,1,150.4,1,,""
426,2018,2,23,16,0,386.2,1,96.8,1,,""
427,2018,2,23,17,0,183.9,1,36.4,1,,""
428,2018,2,23,18,0,27.8,1,5.5,1,,""
429,2018,2,23,19,0,0,1,0,1,,""
430,2018,2,23,20,0,0,1,0,1,,""
431,2018,2,23,21,0,0,1,0,1,,""
432,2018,2,23,22,0,0,1,0,1,,""
433,2018,2,23,23,0,0,1,0,1,,""
434,2018,2,24,0,0,0,1,0,1,,""
435,2018,2,24,1,0,0,1,0,1,,""
436,2018,2,24,2,0,0,1,0,1,,""
437,2018,2,24,3,0,0,1,0,1,,""
438,2018,2,24,4,0,0,1,0,1,,""
439,2018,2,24,5,0,0,1,0,1,,""
440,2018,2,24,6,0,0,1,0,1,,""
441,2018,2,24,7,0,3.8,1,0.7,1,,""
442,2018,2,24,8,0,48.5,1,11.9,1,,""
443,2018,2,24,9,0,106.5,1,27.9,1,,""
444,2018,2,24,10,0,271.5,1,73,1,,""
445,2018,2,24,11,0,325.9,1,87.9,1,,""
446,2018,2,24,12,0,322.5,1,86.3,1,,""
447,2018,2,24,13,0,334.7,1,89.7,1,,""
448,2018,2,24,14,0,213.4,1,57.4,1,,""
449,2018,2,24,15,0,59.4,1,15.4,1,,""
450,2018,2,24,16,0,36.7,1,9.1,1,,""
451,2018,2,24,17,0,26.6,1,6.3,1,,""
452,2018,2,24,18,0,5.5,1,0.8,1,,""
453,2018,2,24,19,0,0,1,0,1,,""
454,2018,2,24,20,0,0,1,0,1,,""
455,2018,2,24,21,0,0,1,0,1,,""
456,2018,2,24,22,0,0,1,0,1,,""
457,2018,2,24,23,0,0,1,0,1,,""
458,2018,2,25,0,0,0,1,0,1,,""
459,2018,2,25,1,0,0,1,0,1,,""
460,2018,2,25,2,0,0,1,0,1,,""
461,2018,2,25,3,0,0,1,0,1,,""
462,2018,2,25,4,0,0,1,0,1,,""
463,2018,2,25,5,0,0,1,0,1,,""
464,2018,2,25,6,0,0,1,0,1,,""
465,2018,2,25,7,0,1.8,1,0,1,,""
466,2018,2,25,8,0,37.6,1,3.3,1,,""
467,2018,2,25,9,0,114.7,1,12.5,1,,""
468,2018,2,25,10,0,162,1,18.5,1,,""
469,2018,2,25,11,0,379.2,1,47.3,1,,""
470,2018,2,25,12,0,470.7,1,65.8,1,,""
471,2018,2,25,13,0,507.8,1,82.4,1,,""
472,2018,2,25,14,0,493.6,1,94.4,1,,""
473,2018,2,25,15,0,285.2,1,60.2,1,,""
474,2018,2,25,16,0,138.5,1,31.1,1,,""
475,2018,2,25,17,0,61.3,1,13.5,1,,""
476,2018,2,25,18,0,15.1,1,2.9,1,,""
477,2018,2,25,19,0,0,1,0,1,,""
478,2018,2,25,20,0,0,1,0,1,,""
479,2018,2,25,21,0,0,1,0,1,,""
480,2018,2,25,22,0,0,1,0,1,,""
481,2018,2,25,23,0,0,1,0,1,,""
482,2018,2,26,0,0,0,1,0,1,,""
483,2018,2,26,1,0,0,1,0,1,,""
484,2018,2,26,2,0,0,1,0,1,,""
485,2018,2,26,3,0,0,1,0,1,,""
486,2018,2,26,4,0,0,1,0,1,,""
487,2018,2,26,5,0,0,1,0,1,,""
488,2018,2,26,6,0,0,1,0,1,,""
489,2018,2,26,7,0,11.3,1,2.1,1,,""
490,2018,2,26,8,0,107.7,1,26.3,1,,""
491,2018,2,26,9,0,279.2,1,70,1,,""
492,2018,2,26,10,0,469.1,1,123.6,1,,""
493,2018,2,26,11,0,634.1,1,171.7,1,,""
494,2018,2,26,12,0,724.7,1,197.5,1,,""
495,2018,2,26,13,0,699.1,1,189.1,1,,""
496,2018,2,26,14,0,677.5,1,182.5,1,,""
497,2018,2,26,15,0,548,1,144.9,1,,""
498,2018,2,26,16,0,357.6,1,89.7,1,,""
499,2018,2,26,17,0,173,1,39.8,1,,""
500,2018,2,26,18,0,30.7,1,6.8,1,,""
501,2018,2,26,19,0,0,1,0,1,,""
502,2018,2,26,20,0,0,1,0,1,,""
503,2018,2,26,21,0,0,1,0,1,,""
504,2018,2,26,22,0,0,1,0,1,,""
505,2018,2,26,23,0,0,1,0,1,,""
506,2018,2,27,0,0,0,1,0,1,,""
507,2018,2,27,1,0,0,1,0,1,,""
508,2018,2,27,2,0,0,1,0,1,,""
509,2018,2,27,3,0,0,1,0,1,,""
510,2018,2,27,4,0,0,1,0,1,,""
511,2018,2,27,5,0,0,1,0,1,,""
512,2018,2,27,6,0,0,1,0,1,,""
513,2018,2,27,7,0,11.8,1,2.5,1,,""
514,2018,2,27,8,0,117.3,1,33.7,1,,""
515,2018,2,27,9,0,314.2,1,86,1,,""
516,2018,2,27,10,0,509.7,1,140.7,1,,""
517,2018,2,27,11,0,653.1,1,176.5,1,,""
518,2018,2,27,12,0,736.6,1,187.4,1,,""
519,2018,2,27,13,0,717,1,212.3,1,,""
520,2018,2,27,14,0,684.6,1,205.9,1,,""
521,2018,2,27,15,0,406.6,1,122.8,1,,""
522,2018,2,27,16,0,152.3,1,44.7,1,,""
523,2018,2,27,17,0,68.9,1,19.6,1,,""
524,2018,2,27,18,0,9.1,1,2.1,1,,""
525,2018,2,27,19,0,0,1,0,1,,""
526,2018,2,27,20,0,0,1,0,1,,""
527,2018,2,27,21,0,0,1,0,1,,""
528,2018,2,27,22,0,0,1,0,1,,""
529,2018,2,27,23,0,0,1,0,1,,""
530,2018,2,28,0,0,0,1,0,1,,""
531,2018,2,28,1,0,0,1,0,1,,""
532,2018,2,28,2,0,0,1,0,1,,""
533,2018,2,28,3,0,0,1,0,1,,""
534,2018,2,28,4,0,0,1,0,1,,""
535,2018,2,28,5,0,0,1,0,1,,""
536,2018,2,28,6,0,0,1,0,1,,""
537,2018,2,28,7,0,0.6,1,0,1,,""
538,2018,2,28,8,0,11.7,1,0.7,1,,""
539,2018,2,28,9,0,36.3,1,3.8,1,,""
540,2018,2,28,10,0,84.5,1,10,1,,""
541,2018,2,28,11,0,126.5,1,15.9,1,,""
542,2018,2,28,12,0,61.8,1,7.5,1,,""
543,2018,2,28,13,0,40,1,4.7,1,,""
544,2018,2,28,14,0,88.4,1,12.6,1,,""
545,2018,2,28,15,0,75.3,1,12.8,1,,""
546,2018,2,28,16,0,114.7,1,22.3,1,,""
547,2018,2,28,17,0,51.3,1,10.3,1,,""
548,2018,2,28,18,0,11.7,1,1.9,1,,""
549,2018,2,28,19,0,0,1,0,1,,""
550,2018,2,28,20,0,0,1,0,1,,""
551,2018,2,28,21,0,0,1,0,1,,""
552,2018,2,28,22,0,0,1,0,1,,""
553,2018,2,28,23,0,0,1,0,1,,""
554,2018,3,1,0,0,0,1,0,1,,""
555,2018,3,1,1,0,0,1,0,1,,""
556,2018,3,1,2,0,0,1,0,1,,""
557,2018,3,1,3,0,0,1,0,1,,""
558,2018,3,1,4,0,0,1,0,1,,""
559,2018,3,1,5,0,0,1,0,1,,""
560,2018,3,1,6,0,0,1,0,1,,""
561,2018,3,1,7,0,9.5,1,1.5,1,,""
562,2018,3,1,8,0,78.2,1,17.7,1,,""
563,2018,3,1,9,0,186.4,1,44.3,1,,""
564,2018,3,1,10,0,370.1,1,95.2,1,,""
565,2018,3,1,11,0,542.4,1,152.2,1,,""
566,2018,3,1,12,0,549.4,1,158.5,1,,""
567,2018,3,1,13,0,466.5,1,135.7,1,,""
568,2018,3,1,14,0,358.4,1,104.4,1,,""
569,2018,3,1,15,0,327.8,1,96.7,1,,""
570,2018,3,1,16,0,157.1,1,45.7,1,,""
571,2018,3,1,17,0,67.2,1,19,1,,""
572,2018,3,1,18,0,14.2,1,3.4,1,,""
573,2018,3,1,19,0,0,1,0,1,,""
574,2018,3,1,20,0,0,1,0,1,,""
575,2018,3,1,21,0,0,1,0,1,,""
576,2018,3,1,22,0,0,1,0,1,,""
577,2018,3,1,23,0,0,1,0,1,,""
578,2018,3,2,0,0,0,1,0,1,,""
579,2018,3,2,1,0,0,1,0,1,,""
580,2018,3,2,2,0,0,1,0,1,,""
581,2018,3,2,3,0,0,1,0,1,,""
582,2018,3,2,4,0,0,1,0,1,,""
583,2018,3,2,5,0,0,1,0,1,,""
584,2018,3,2,6,0,0,1,0,1,,""
585,2018,3,2,7,0,1.1,1,0,1,,""
586,2018,3,2,8,0,10,1,0.3,1,,""
587,2018,3,2,9,0,41,1,4,1,,""
588,2018,3,2,10,0,80.7,1,9.1,1,,""
589,2018,3,2,11,0,90.2,1,10.4,1,,""
590,2018,3,2,12,0,126.2,1,15.2,1,,""
591,2018,3,2,13,0,136.7,1,16.8,1,,""
592,2018,3,2,14,0,145.5,1,18.6,1,,""
593,2018,3,2,15,0,136.3,1,18.3,1,,""
594,2018,3,2,16,0,102,1,13.9,1,,""
595,2018,3,2,17,0,37.3,1,4.4,1,,""
596,2018,3,2,18,0,5.5,1,0.2,1,,""
597,2018,3,2,19,0,0,1,0,1,,""
598,2018,3,2,20,0,0,1,0,1,,""
599,2018,3,2,21,0,0,1,0,1,,""
600,2018,3,2,22,0,0,1,0,1,,""
601,2018,3,2,23,0,0,1,0,1,,""
602,2018,3,3,0,0,0,1,0,1,,""
603,2018,3,3,1,0,0,1,0,1,,""
604,2018,3,3,2,0,0,1,0,1,,""
605,2018,3,3,3,0,0,1,0,1,,""
606,2018,3,3,4,0,0,1,0,1,,""
607,2018,3,3,5,0,0,1,0,1,,""
608,2018,3,3,6,0,0,1,0,1,,""
609,2018,3,3,7,0,2,1,0,1,,""
610,2018,3,3,8,0,26.5,1,2.4,1,,""
611,2018,3,3,9,0,113.4,1,13.6,1,,""
612,2018,3,3,10,0,190.5,1,23.5,1,,""
613,2018,3,3,11,0,275,1,34.3,1,,""
614,2018,3,3,12,0,255.7,1,32,1,,""
615,2018,3,3,13,0,239.3,1,30.6,1,,""
616,2018,3,3,14,0,206.1,1,27.1,1,,""
617,2018,3,3,15,0,182.2,1,24.9,1,,""
618,2018,3,3,16,0,145.6,1,20.3,1,,""
619,2018,3,3,17,0,79.1,1,10.7,1,,""
620,2018,3,3,18,0,25.9,1,2.9,1,,""
621,2018,3,3,19,0,0.1,1,0,1,,""
622,2018,3,3,20,0,0,1,0,1,,""
623,2018,3,3,21,0,0,1,0,1,,""
624,2018,3,3,22,0,0,1,0,1,,""
625,2018,3,3,23,0,0,1,0,1,,""
626,2018,3,4,0,0,0,1,0,1,,""
627,2018,3,4,1,0,0,1,0,1,,""
628,2018,3,4,2,0,0,1,0,1,,""
629,2018,3,4,3,0,0,1,0,1,,""
630,2018,3,4,4,0,0,1,0,1,,""
631,2018,3,4,5,0,0,1,0,1,,""
632,2018,3,4,6,0,0,1,0,1,,""
633,2018,3,4,7,0,6.5,1,0.4,1,,""
634,2018,3,4,8,0,80.1,1,10.6,1,,""
635,2018,3,4,9,0,266.4,1,41.4,1,,""
636,2018,3,4,10,0,445.4,1,81.1,1,,""
637,2018,3,4,11,0,589.2,1,132.9,1,,""
638,2018,3,4,12,0,665.6,1,177.1,1,,""
639,2018,3,4,13,0,698,1,199,1,,""
640,2018,3,4,14,0,638.8,1,185.3,1,,""
641,2018,3,4,15,0,503.3,1,148.7,1,,""
642,2018,3,4,16,0,296,1,86.4,1,,""
643,2018,3,4,17,0,92.4,1,25.5,1,,""
644,2018,3,4,18,0,18.3,1,4.6,1,,""
645,2018,3,4,19,0,0,1,0,1,,""
646,2018,3,4,20,0,0,1,0,1,,""
647,2018,3,4,21,0,0,1,0,1,,""
648,2018,3,4,22,0,0,1,0,1,,""
649,2018,3,4,23,0,0,1,0,1,,""
650,2018,3,5,0,0,0,1,0,1,,""
651,2018,3,5,1,0,0,1,0,1,,""
652,2018,3,5,2,0,0,1,0,1,,""
653,2018,3,5,3,0,0,1,0,1,,""
654,2018,3,5,4,0,0,1,0,1,,""
655,2018,3,5,5,0,0,1,0,1,,""
656,2018,3,5,6,0,0,1,0,1,,""
657,2018,3,5,7,0,2.2,1,0.1,1,,""
658,2018,3,5,8,0,15.4,1,1,1,,""
659,2018,3,5,9,0,111.5,1,13.4,1,,""
660,2018,3,5,10,0,201.5,1,25.3,1,,""
661,2018,3,5,11,0,342,1,45.3,1,,""
662,2018,3,5,12,0,381.3,1,53.2,1,,""
663,2018,3,5,13,0,344.1,1,51.4,1,,""
664,2018,3,5,14,0,310.3,1,51,1,,""
665,2018,3,5,15,0,342,1,66.8,1,,""
666,2018,3,5,16,0,209.4,1,48.9,1,,""
667,2018,3,5,17,0,111.4,1,27.9,1,,""
668,2018,3,5,18,0,22.8,1,5.4,1,,""
669,2018,3,5,19,0,0,1,0,1,,""
670,2018,3,5,20,0,0,1,0,1,,""
671,2018,3,5,21,0,0,1,0,1,,""
672,2018,3,5,22,0,0,1,0,1,,""
673,2018,3,5,23,0,0,1,0,1,,""
674,2018,3,6,0,0,0,1,0,1,,""
675,2018,3,6,1,0,0,1,0,1,,""
676,2018,3,6,2,0,0,1,0,1,,""
677,2018,3,6,3,0,0,1,0,1,,""
678,2018,3,6,4,0,0,1,0,1,,""
679,2018,3,6,5,0,0,1,0,1,,""
680,2018,3,6,6,0,0,1,0,1,,""
681,2018,3,6,7,0,14.3,1,3.4,1,,""
682,2018,3,6,8,0,94.5,1,26.6,1,,""
683,2018,3,6,9,0,247,1,75.6,1,,""
684,2018,3,6,10,0,357.5,1,108.2,1,,""
685,2018,3,6,11,0,641.8,1,195.8,1,,""
686,2018,3,6,12,0,732.6,1,219.1,1,,""
687,2018,3,6,13,0,678.9,1,199.4,1,,""
688,2018,3,6,14,0,556.8,1,163.6,1,,""
689,2018,3,6,15,0,436.4,1,129,1,,""
690,2018,3,6,16,0,185.9,1,54.2,1,,""
691,2018,3,6,17,0,63.9,1,18,1,,""
692,2018,3,6,18,0,14.1,1,3.4,1,,""
693,2018,3,6,19,0,0,1,0,1,,""
694,2018,3,6,20,0,0,1,0,1,,""
695,2018,3,6,21,0,0,1,0,1,,""
696,2018,3,6,22,0,0,1,0,1,,""
697,2018,3,6,23,0,0,1,0,1,,""
698,2018,3,7,0,0,0,1,0,1,,""
699,2018,3,7,1,0,0,1,0,1,,""
700,2018,3,7,2,0,0,1,0,1,,""
701,2018,3,7,3,0,0,1,0,1,,""
702,2018,3,7,4,0,0,1,0,1,,""
703,2018,3,7,5,0,0,1,0,1,,""
704,2018,3,7,6,0,0,1,0,1,,""
705,2018,3,7,7,0,2.6,1,0,1,,""
706,2018,3,7,8,0,29.1,1,2.7,1,,""
707,2018,3,7,9,0,72.2,1,8.4,1,,""
708,2018,3,7,10,0,92.9,1,11,1,,""
709,2018,3,7,11,0,61.8,1,7,1,,""
710,2018,3,7,12,0,49.5,1,5.2,1,,""
711,2018,3,7,13,0,74.5,1,8.1,1,,""
712,2018,3,7,14,0,105.7,1,12.3,1,,""